Regional Weather Roundup
Issued by NWS

Home | Current Version | Previous Version | Graphics & Text | Print | Product List | Glossary Off
Versions: 1 2 3 4 5 6 7 8 9 10 11 12 13 14 15 16 17 18 19 20 21 22 23 24 25 26 27 28 29 30 31 32 33 34 35 36 37 38 39 40 41 42 43 44 45 46 47 48 49 50

000
ASUS43 KMKX 292211
RWRWI

WISCONSIN REGIONAL WEATHER ROUNDUP
NATIONAL WEATHER SERVICE MILWAUKEE/SULLIVAN WI
500 PM CDT MON JUN 29 2015

NOTE: "FAIR" INDICATES FEW OR NO CLOUDS BELOW 12,000 FEET WITH NO
SIGNIFICANT WEATHER AND/OR OBSTRUCTIONS TO VISIBILITY.

WIZ001-002-006>008-014>016-023>028-292300-
NORTHWEST WISCONSIN

CITY           SKY/WX    TMP DP  RH WIND       PRES   REMARKS
SUPERIOR ARPT  MOSUNNY   73  64  71 SW6       29.75S
ASHLAND        PTSUNNY   74  65  73 N5        29.76F
HAYWARD        CLOUDY    66  59  78 CALM      29.79S
SIREN          LGT RAIN  60  58  92 CALM      29.78F
CUMBERLAND     RAIN      61  57  88 S7        29.81R
RICE LAKE      LGT RAIN  64  58  82 E3        29.79F
CHETEK         LGT RAIN  61  60  94 E7        29.80F
LADYSMITH      CLOUDY    64  59  85 SW12      29.84R
EAU CLAIRE     TSTM      60  58  92 NW5       29.85R FOG
MENOMONIE      RAIN      62  61  96 NE7       29.86R
NEW RICHMOND   PTSUNNY   69  55  60 E13G23    29.82R
OSCEOLA        CLOUDY    72  56  57 E12G18    29.81R
$$

WIZ003>005-009-010-017-018-292300-
NORTH CENTRAL WISCONSIN

CITY           SKY/WX    TMP DP  RH WIND       PRES   REMARKS
MANITOWISH WTR CLOUDY    63  63  99 W5        29.77F
ARBOR VITAE    CLOUDY    62  59  90 NW5       29.77R
WOODRUFF       CLOUDY    62  59  90 NW5       29.77R
RHINELANDER    CLOUDY    63  59  87 CALM      29.77F
EAGLE RIVER    LGT RAIN  65  55  70 NW3       29.75F
LAND O LAKES   LGT RAIN  62  60  92 CALM      29.77S
PHILLIPS       CLOUDY    63  60  89 SW5       29.78S
TOMAHAWK       LGT RAIN  60  58  94 CALM      29.79S
MEDFORD        DRIZZLE   59  58  95 W3        29.80F
MERRILL        CLOUDY    63  61  93 CALM      29.78F
$$

WIZ029-030-035-036-043>047-292300-
CENTRAL WISCONSIN

CITY           SKY/WX    TMP DP  RH WIND       PRES   REMARKS
WAUSAU         TSTM      63  59  87 NW12      29.78R
MOSINEE        LGT RAIN  61  59  94 W7        29.82R
MARSHFIELD     LGT RAIN  64  55  72 N12G20    29.81F
STEVENS POINT  CLOUDY    67  54  61 NW13G25   29.81R
WAUPACA        PTSUNNY   73  65  74 S6        29.78S
WAUTOMA        PTSUNNY   74  63  68 E3        29.78R
WISC RAPIDS    PTSUNNY   69  54  58 N20G25    29.83R
CAMP DOUGLAS   CLOUDY    75  73  94 NW3       29.79R
$$

WIZ011>013-019>022-031-037>040-048>050-292300-
NORTHEAST WISCONSIN

CITY           SKY/WX    TMP DP  RH WIND       PRES   REMARKS
ANTIGO         CLOUDY    68  62  82 SE8       29.76F
SHAWANO        CLOUDY    70  64  82 S5        29.77R
OCONTO         CLOUDY    74  60  61 NW7       29.75S
STURGEON BAY   MOSUNNY   73  55  53 S16       29.78F
GREEN BAY      TSTM      70  65  84 S7        29.78R
MANITOWOC      SUNNY     71  62  73 MISG      29.79S
APPLETON       PTSUNNY   72  57  60 SW7       29.78S
CLINTONVILLE   PTSUNNY  N/A N/A N/A S9G16     29.77S
OSHKOSH        MOSUNNY   74  61  63 SW7       29.77S
$$

WIZ032>034-041-042-053>061-292300-
SOUTHWEST WISCONSIN

CITY           SKY/WX    TMP DP  RH WIND       PRES   REMARKS
LA CROSSE      TSTM      77  64  64 NE6       29.77S
SPARTA         LGT RAIN  74  62  65 NW6       29.79S
VIROQUA        PTSUNNY   76  60  58 NW6       29.80S
BOSCOBEL       MOSUNNY   83  63  50 NW8       29.78S HX  84
PRAIRIE DU CHI MOSUNNY   79  62  56 W8        29.78S HX  80
PLATTEVILLE    MOSUNNY   79  61  53 NW13      29.80S HX  80
$$

WIZ056-057-062-063-064-067-068-292300-
SOUTH CENTRAL WISCONSIN

CITY           SKY/WX    TMP DP  RH WIND       PRES   REMARKS
REEDSBURG      MOSUNNY   76  63  63 W6        29.78S
BARABOO/DELLS  SUNNY     78  58  50 NW6       29.79R
LONE ROCK      SUNNY     79  61  53 W9        29.78S HX  80
MINERAL POINT  SUNNY     77  63  61 NW6       29.80S
MADISON        PTSUNNY   73  63  70 SE7       29.78S
MIDDLETON      MOSUNNY   79  61  53 CALM      29.79S HX  80
WATERTOWN      MOSUNNY   72  63  75 SW5       29.79R
MONROE         LGT RAIN  75  63  64 NW6       29.79S
JANESVILLE     MOSUNNY   70  64  83 CALM      29.79F
$$

WIZ051-052-058>065-066-070>072-292300-
SOUTHEAST WISCONSIN

CITY           SKY/WX    TMP DP  RH WIND       PRES   REMARKS
MILWAUKEE      PTSUNNY   70  61  73 SE10      29.80S
WAUKESHA       MOSUNNY   70  61  73 S6        29.81S
MILWAUKEE/TIMM PTSUNNY   73  55  53 S7        29.80S
RACINE         PTSUNNY   68  61  78 S8        29.82S
BURLINGTON     PTSUNNY   70  62  75 S5        29.80S
KENOSHA        CLOUDY    69  62  78 SE9       29.80S
FOND DU LAC    MOSUNNY   74  63  68 SW7       29.78S
SHEBOYGAN      SUNNY     74  60  61 S9        29.79S
WEST BEND      HVY RAIN  68  59  73 E9        29.80R
JUNEAU         MOSUNNY   74  63  68 SW5       29.79F
$$

LSZ147-162-292300-
LAKE SUPERIOR

STATION/POSITION TIME  TEMP    WIND        PRES    WAVE
                       AIR SEA DIR/SP/G            HT/PER
                 (UTC) (F)     (DEG/KT/KT) (MB)    (FT/S)
W MID LAKE BUOY  2150   50 38  280/  6/  8 1007.8R   0
DEVILS ISLAND    2200   64     230/  4/  5 1007.5F
SAXON HARBOR     2140   68      CALM  /  4 1007.5S
$$

LMZ867-665-643>646-292300-
LAKE MICHIGAN

STATION/POSITION TIME  TEMP    WIND        PRES    WAVE
                       AIR SEA DIR/SP/G            HT/PER
                 (UTC) (F)     (DEG/KT/KT) (MB)    (FT/S)
CHAMBERS ISLAND  2100   75     190/  5/ 12 1007.8S
S GREEN BAY BUOY 2200   75 72  180/ 12/ 16 1008.9F
N MID LAKE BUOY  2150   59 51  230/  6/  6 1008.2F   1
NORTHPORT PIER   2100   73     160/  6/ 11 1008.1S
ALGOMA LAKESHORE 2110          200/  7/  8   N/A
KEWAUNEE LAKESHO 2100   64     180/  7/  9 1008.0F
SHEBOYGAN LAKESH 2200   61     170/ 11/ 12 1009.1R
PORT WASHINGTON  2100   67     160/  6/  7 1009.5F
ATWATER BUOY     2200   62 61  150/  8/ 10 1010.6R
MILWAUKEE LAKESH 2100   61     130/  8/  9   N/A
KENOSHA   LAKESH 2200   63     160/  8/  9 1008.8F
$$

TC  - TEMPERATURE IN CELSIUS
VSB - VISIBILITY IN STATUTE MILES
WCI - WIND CHILL INDEX
HX  - HEAT INDEX




USA.gov is the U.S. government's official web portal to all federal, state and local government web resources and services.